Date,TemperatureHighF,TemperatureAvgF,TemperatureLowF,DewpointHighF,DewpointAvgF,DewpointLowF,HumidityHigh,HumidityAvg,HumidityLow,PressureMaxIn,PressureMinIn,WindSpeedMaxMPH,WindSpeedAvgMPH,GustSpeedMaxMPH,PrecipitationSumIn
2013-1-1,31.0,24.8,12.1,29.0,18.5,8.0,91,77,65,30.17,30.04,7,2,9,0.01
2013-1-2,19.2,12.7,4.8,13.5,7.9,0.0,87,81,75,30.28,30.14,15,3,15,0.00
2013-1-3,27.9,20.0,4.7,24.0,14.0,-1.0,85,77,67,30.27,30.18,14,6,22,0.00
2013-1-4,27.2,21.5,15.2,21.0,16.0,11.0,83,79,72,30.29,30.21,22,10,26,0.00
2013-1-5,34.2,28.0,15.0,30.0,23.3,11.0,89,83,75,30.33,30.10,20,5,20,0.00
2013-1-6,35.8,31.9,26.0,31.2,27.4,21.8,88,83,80,30.32,29.98,23,9,27,0.00
2013-1-7,32.2,27.6,22.4,26.2,23.0,18.8,87,83,77,30.45,30.22,20,4,20,0.00
2013-1-8,35.9,26.4,18.0,30.0,22.1,14.5,88,84,73,30.31,30.20,12,2,12,0.01
2013-1-9,43.3,37.1,25.6,36.0,31.7,21.8,88,81,73,30.52,30.14,16,7,24,0.00
2013-1-10,38.2,33.6,24.7,32.4,28.9,22.0,90,83,75,30.56,30.12,15,5,18,0.04
2013-1-11,59.0,45.3,36.2,54.0,42.3,32.5,94,89,76,30.12,29.80,21,5,26,0.61
2013-1-12,60.0,51.0,43.6,55.0,48.1,41.3,95,90,81,29.97,29.71,18,3,21,0.47
2013-1-13,52.8,40.9,30.6,51.4,39.2,27.1,95,93,87,30.11,29.68,16,5,21,1.60
2013-1-14,30.5,23.6,20.3,27.1,19.0,16.0,87,82,78,30.48,30.11,22,6,24,0.00
2013-1-15,28.0,24.3,18.5,22.0,18.7,15.0,87,79,70,30.45,30.16,11,4,14,0.00
2013-1-16,35.2,29.9,22.0,26.9,23.4,19.0,89,77,63,30.16,29.92,21,7,21,0.00
2013-1-17,39.9,32.5,20.1,31.9,25.9,14.0,89,77,55,30.38,30.04,22,5,22,0.00
2013-1-18,36.2,30.0,20.0,26.4,21.6,14.0,80,71,60,30.49,30.08,37,9,37,0.00
2013-1-19,49.7,41.6,35.1,36.0,30.4,26.0,77,65,57,30.08,29.74,32,12,34,0.00
2013-1-20,41.7,24.8,17.4,35.0,14.8,10.0,78,66,55,30.24,29.74,43,9,43,0.00
2013-1-21,19.0,15.6,7.8,11.3,5.9,-3.0,74,65,51,30.22,30.07,31,10,33,0.00
2013-1-22,13.8,8.6,3.5,0.0,-2.0,-5.0,70,62,52,30.38,30.22,20,9,26,0.00
2013-1-23,18.5,13.3,7.4,14.0,3.7,-2.0,85,65,53,30.37,30.11,19,8,19,0.00
2013-1-24,20.9,14.9,6.0,13.5,5.9,1.0,85,68,50,30.64,30.13,14,4,26,0.00
2013-1-25,23.1,19.9,17.1,20.0,14.2,9.0,86,78,67,30.51,30.05,13,6,16,0.00
2013-1-26,27.8,23.6,14.1,20.4,17.0,9.0,88,76,60,30.48,30.11,9,2,15,0.02
2013-1-27,32.8,24.4,13.7,30.0,19.3,10.0,89,81,73,30.50,30.14,14,4,17,0.01
2013-1-28,48.0,43.1,32.7,46.4,41.4,29.9,95,94,89,30.15,29.93,22,6,22,0.06
2013-1-29,59.5,54.0,41.4,56.0,51.4,40.0,96,91,85,30.00,29.45,21,7,33,0.02
2013-1-30,62.7,50.0,30.9,57.8,47.0,26.0,95,90,81,29.45,29.16,36,10,36,0.55
2013-1-31,30.7,21.9,13.6,26.0,15.4,6.0,88,76,64,30.01,29.42,34,16,38,0.00
2013-2-1,16.9,12.1,6.5,7.9,4.7,0.8,77,71,65,30.37,30.01,26,11,31,0.00
2013-2-2,24.5,18.7,12.3,21.0,14.7,6.0,89,84,75,30.30,30.00,19,6,19,0.00
2013-2-3,20.2,16.7,11.8,14.1,11.9,8.0,86,81,74,30.09,29.97,23,6,23,0.01
2013-2-4,23.7,21.0,11.6,21.0,18.1,8.0,90,88,80,30.10,29.87,13,4,16,0.00
2013-2-5,29.7,22.0,10.6,27.0,18.9,7.7,91,87,79,30.02,29.86,13,2,14,0.01
2013-2-6,29.6,25.7,19.7,26.2,17.2,11.5,87,70,57,30.31,30.03,11,3,15,0.05
2013-2-7,39.2,29.9,22.8,31.4,23.7,17.0,90,77,71,30.28,29.80,14,4,14,0.09
2013-2-8,32.8,28.4,19.7,31.0,23.9,15.8,93,83,72,30.37,29.78,17,5,26,0.10
2013-2-9,32.4,21.0,13.1,24.0,16.4,10.0,88,82,68,30.48,30.29,8,2,12,0.00
2013-2-10,44.7,37.3,23.4,41.5,31.4,19.8,93,79,70,30.28,29.72,18,5,18,0.01
2013-2-11,46.3,37.3,31.5,43.2,30.7,23.0,94,77,70,29.97,29.63,41,16,43,0.01
2013-2-12,37.7,31.9,27.7,29.0,24.9,23.0,83,76,68,30.12,29.95,20,7,23,0.00
2013-2-13,36.2,29.8,26.1,29.3,24.9,21.0,88,82,73,29.96,29.78,8,2,11,0.00
2013-2-14,43.7,36.5,31.2,37.0,31.9,26.0,90,84,72,29.95,29.74,34,8,35,0.00
2013-2-15,33.0,28.9,20.4,26.0,21.8,15.0,83,75,63,30.17,29.94,11,4,19,0.00
2013-2-16,27.8,20.6,14.1,20.7,14.1,7.0,86,76,62,30.15,30.04,14,5,24,0.00
2013-2-17,29.1,19.7,11.2,16.4,11.1,7.5,86,70,46,30.26,30.13,15,3,18,0.00
2013-2-18,52.0,33.8,19.5,40.2,25.1,13.0,85,70,61,30.23,29.62,27,6,36,0.04
2013-2-19,44.3,24.3,15.3,40.3,18.6,9.0,89,79,70,30.07,29.50,41,16,46,0.06
2013-2-20,23.3,19.8,14.2,16.0,12.6,8.3,78,73,66,30.31,30.06,23,10,27,0.09
2013-2-21,26.2,22.5,20.8,19.0,15.4,13.7,79,74,70,30.39,30.20,18,5,22,0.00
2013-2-22,34.8,28.4,20.4,33.2,25.9,15.0,94,90,77,30.20,29.90,18,6,26,0.02
2013-2-23,32.8,29.2,26.1,30.5,23.3,20.0,91,78,71,29.99,29.91,21,8,21,0.00
2013-2-24,37.7,30.0,25.5,27.2,22.7,19.6,85,74,61,30.17,29.95,18,6,20,0.00
2013-2-25,40.6,32.3,21.7,29.8,25.5,19.0,91,77,63,30.23,30.03,15,4,17,0.00
2013-2-26,34.4,31.9,29.4,33.0,28.7,24.0,94,87,79,30.03,29.43,19,6,25,0.69
2013-2-27,35.0,33.4,30.8,34.0,31.5,29.0,94,93,89,29.63,29.43,18,8,22,0.25
2013-2-28,38.0,34.2,30.8,33.5,31.2,28.8,94,89,81,29.95,29.60,16,5,16,0.15
2013-3-1,32.4,28.8,25.4,30.0,23.6,19.0,90,81,74,30.12,29.95,12,5,14,0.00
2013-3-2,28.0,26.3,24.9,21.0,19.2,16.6,82,74,70,30.10,30.06,14,6,16,0.15
2013-3-3,32.2,26.4,22.2,18.8,17.3,15.0,83,69,54,30.10,30.04,22,5,22,0.00
2013-3-4,34.9,26.4,17.9,24.0,18.8,13.9,85,73,54,30.18,30.07,8,2,8,0.00
2013-3-5,32.1,30.1,27.2,27.5,24.8,22.5,93,81,75,30.10,29.70,24,10,28,0.00
2013-3-6,36.5,30.5,25.4,29.0,26.1,22.0,93,84,72,30.24,29.75,19,7,23,0.02
2013-3-7,40.2,35.0,30.6,31.9,28.4,24.0,87,77,66,30.39,30.22,12,4,13,0.00
2013-3-8,41.1,32.0,24.2,28.0,24.0,21.0,87,73,59,30.50,30.39,7,1,9,0.00
2013-3-9,45.8,36.5,27.0,37.0,31.1,24.0,89,81,68,30.42,30.00,10,4,18,0.07
2013-3-10,61.4,51.9,38.8,49.5,42.5,33.8,82,70,61,30.00,29.77,20,5,23,0.02
2013-3-11,54.6,49.9,35.7,49.0,45.0,31.0,93,84,71,29.78,29.50,30,9,32,0.35
2013-3-12,35.7,33.3,31.5,32.0,28.0,25.0,88,81,71,29.97,29.77,22,11,29,0.01
2013-3-13,32.3,28.4,24.9,28.0,21.6,17.0,88,75,65,30.28,29.95,26,9,31,0.00
2013-3-14,41.6,32.3,22.1,27.0,22.3,16.8,81,67,51,30.33,30.14,15,6,18,0.01
2013-3-15,47.1,37.6,29.8,39.0,32.1,23.0,92,81,70,30.14,29.79,16,5,17,0.12
2013-3-16,40.8,33.8,31.4,39.0,31.3,27.4,94,90,84,30.07,29.65,13,5,19,0.01
2013-3-17,31.5,29.4,27.1,27.5,23.0,19.9,85,77,70,30.23,30.06,21,7,23,0.00
2013-3-18,36.7,32.4,27.3,35.1,29.9,22.0,94,90,79,30.11,29.55,25,8,25,0.06
2013-3-19,34.9,29.7,23.0,30.0,19.5,14.0,85,66,52,30.01,29.73,36,15,40,0.06
2013-3-20,32.0,26.3,18.3,20.1,15.1,9.0,76,63,50,30.02,29.95,26,8,28,0.00
2013-3-21,31.4,22.6,16.3,20.3,15.2,10.0,83,73,61,30.02,29.95,21,6,23,0.00
2013-3-22,42.9,30.0,18.5,24.0,18.6,14.0,83,65,42,30.05,29.98,14,4,20,0.00
2013-3-23,42.3,31.9,21.1,27.0,22.9,17.0,88,71,54,30.10,30.00,11,2,12,0.00
2013-3-24,34.9,31.2,27.0,26.5,23.8,21.9,84,74,64,30.00,29.55,34,13,35,0.00
2013-3-25,34.4,30.3,28.5,32.0,28.0,25.0,93,91,81,29.93,29.49,19,9,21,0.11
2013-3-26,42.1,35.1,31.2,33.0,29.3,27.0,85,79,67,30.17,29.93,14,5,20,0.00
2013-3-27,44.0,37.1,31.7,31.1,27.9,23.0,87,70,56,30.27,30.17,22,7,23,0.00
2013-3-28,52.3,37.3,26.4,33.0,25.7,20.5,78,64,42,30.32,30.25,20,5,20,0.00
2013-3-29,53.5,39.7,25.8,31.0,26.5,23.0,91,63,34,30.31,30.20,11,2,22,0.00
2013-3-30,56.4,44.1,25.0,36.4,30.4,20.0,84,60,43,30.23,29.93,20,3,23,0.00
2013-3-31,60.7,48.1,39.4,45.0,37.8,31.8,85,69,45,29.93,29.66,27,7,31,0.01
2013-4-1,43.2,35.9,24.8,32.4,20.8,14.0,78,55,36,30.14,29.76,25,7,25,0.00
2013-4-2,44.2,33.4,19.7,21.3,15.8,10.7,79,51,31,30.28,30.14,18,5,25,0.00
2013-4-3,45.2,33.0,18.8,22.0,15.3,12.0,80,51,28,30.43,30.28,11,3,17,0.00
2013-4-4,56.7,43.5,24.2,25.4,21.0,16.0,71,43,25,30.36,29.97,13,3,13,0.00
2013-4-5,53.3,43.1,31.1,34.0,24.4,17.0,70,50,26,30.17,29.94,16,5,21,0.00
2013-4-6,58.3,47.2,32.3,37.7,28.1,20.0,70,49,35,30.22,29.77,23,8,24,0.00
2013-4-7,67.1,58.2,48.6,46.6,42.2,36.0,71,56,42,29.96,29.68,28,10,31,0.00
2013-4-8,71.8,58.2,39.0,57.1,47.6,33.6,82,69,58,29.97,29.74,25,8,34,0.07
2013-4-9,80.6,63.9,47.6,61.3,51.8,42.3,83,67,46,30.02,29.80,28,7,34,0.00
2013-4-10,67.7,50.1,43.6,57.8,46.9,41.9,93,89,66,29.93,29.76,24,6,24,0.82
2013-4-11,43.7,40.5,38.7,42.0,38.8,37.0,95,93,92,29.92,29.55,28,11,32,0.89
2013-4-12,42.3,39.9,38.3,38.0,35.9,32.2,94,86,74,29.85,29.54,23,9,25,0.18
2013-4-13,42.7,39.1,37.1,35.6,33.5,30.8,89,80,66,30.01,29.85,29,10,29,0.01
2013-4-14,57.3,41.8,35.9,48.0,36.9,31.7,89,83,69,30.09,29.87,15,3,22,0.00
2013-4-15,67.8,56.9,41.6,57.0,49.9,39.0,90,78,62,29.94,29.84,20,5,26,0.00
2013-4-16,60.0,53.5,48.7,54.0,49.4,44.0,93,86,77,30.18,29.86,9,3,17,0.27
2013-4-17,54.9,50.4,45.5,46.6,42.7,37.7,87,75,69,30.24,29.96,20,10,25,0.01
2013-4-18,78.0,60.6,45.8,66.4,55.8,37.8,95,85,63,29.99,29.55,48,8,48,0.74
2013-4-19,59.7,43.4,36.0,57.6,38.5,31.0,95,83,68,29.85,29.40,41,14,42,0.33
2013-4-20,45.6,37.9,32.1,31.6,26.9,21.0,87,66,46,30.44,29.85,23,8,23,0.01
2013-4-21,49.2,38.2,27.6,34.3,27.7,20.0,81,67,49,30.59,30.43,18,6,19,0.00
2013-4-22,64.2,45.0,30.5,43.0,33.2,26.8,87,67,37,30.43,30.14,17,3,17,0.00
2013-4-23,70.1,55.0,41.2,55.0,46.2,37.0,94,74,46,30.13,29.76,19,5,29,0.39
2013-4-24,57.1,41.8,34.9,54.2,36.2,27.5,94,81,59,30.18,29.71,25,7,25,0.60
2013-4-25,53.1,42.9,34.2,41.1,33.6,28.5,87,71,46,30.36,30.16,29,7,30,0.00
2013-4-26,59.0,47.2,30.8,41.0,35.0,28.0,91,65,43,30.45,30.33,15,2,15,0.00
2013-4-27,68.5,58.7,37.7,48.2,42.3,32.7,83,57,34,30.34,30.04,11,3,18,0.00
2013-4-28,59.4,56.0,51.8,57.0,52.7,46.0,94,89,72,30.04,29.79,15,4,15,0.52
2013-4-29,68.4,59.8,52.7,59.4,55.1,51.0,95,85,65,29.93,29.83,16,4,17,0.01
2013-4-30,75.9,62.5,49.2,63.0,55.5,47.0,94,79,60,30.02,29.91,17,3,18,0.00
2013-5-1,80.5,68.0,54.4,63.3,57.1,51.0,90,70,50,30.15,30.01,18,3,21,0.00
2013-5-2,75.1,66.9,56.4,59.3,56.2,51.6,84,70,53,30.18,30.06,21,5,21,0.00
2013-5-3,76.5,68.0,59.0,62.0,53.6,45.0,84,62,38,30.06,29.94,18,8,25,0.00
2013-5-4,70.2,63.0,56.0,48.7,46.0,42.9,70,55,40,30.02,29.94,22,8,25,0.00
2013-5-5,72.4,61.0,51.1,50.6,45.6,42.7,76,58,36,30.01,29.93,17,6,18,0.00
2013-5-6,72.5,63.5,52.5,55.9,48.1,41.7,67,58,46,29.99,29.90,14,4,14,0.00
2013-5-7,73.7,63.3,52.8,57.0,51.5,46.1,81,66,54,29.99,29.91,22,4,22,0.00
2013-5-8,79.3,65.2,53.1,59.6,53.9,49.0,87,69,37,29.97,29.89,10,2,22,0.04
2013-5-9,83.7,65.5,52.7,61.0,54.2,48.8,93,71,32,29.95,29.87,15,2,17,0.00
2013-5-10,70.3,63.2,49.3,62.0,57.6,45.0,93,82,69,29.88,29.71,16,6,24,0.20
2013-5-11,56.4,48.7,39.0,49.3,42.7,34.0,86,80,72,29.95,29.79,17,5,25,0.04
2013-5-12,51.7,42.9,36.6,34.4,31.8,28.0,85,66,45,30.12,29.95,25,5,27,0.00
2013-5-13,59.0,46.6,31.7,35.9,31.1,26.5,88,59,33,30.18,30.09,17,3,17,0.00
2013-5-14,84.7,65.7,42.3,60.6,48.8,32.0,72,56,41,30.09,29.70,21,6,35,0.00
2013-5-15,87.3,76.7,66.4,60.6,57.2,51.3,71,52,34,29.76,29.64,29,9,32,0.00
2013-5-16,84.8,69.9,54.8,57.4,50.3,44.0,81,54,25,29.92,29.73,9,1,9,0.00
2013-5-17,80.9,65.9,53.3,56.0,48.0,40.0,70,54,40,30.07,29.92,16,6,23,0.00
2013-5-18,77.6,65.4,53.0,60.0,50.8,39.0,75,60,45,30.07,29.96,11,3,16,0.00
2013-5-19,85.5,71.6,55.2,66.0,57.9,47.0,78,63,48,29.97,29.82,11,2,15,0.00
2013-5-20,88.5,77.2,65.5,70.4,66.0,61.0,90,70,49,29.89,29.76,22,6,27,0.00
2013-5-21,87.7,77.5,68.5,66.0,63.1,61.0,82,63,42,29.80,29.68,26,8,30,0.00
2013-5-22,80.7,71.1,63.2,65.0,61.6,59.0,89,73,52,29.72,29.62,37,8,38,0.06
2013-5-23,67.1,59.0,48.5,60.7,54.0,44.2,89,84,73,30.12,29.70,20,7,22,0.04
2013-5-24,49.6,46.8,43.2,44.7,41.0,37.0,86,80,69,30.30,30.11,15,5,15,0.00
2013-6-12,87.6,78.9,66.5,74.2,71.9,63.2,91,80,62,29.69,29.56,38,3,38,0.76
2013-6-13,79.3,68.6,64.6,64.7,62.2,55.0,95,82,45,29.79,29.47,21,6,21,0.32
2013-6-14,78.0,68.0,58.4,60.8,57.9,55.8,92,72,50,30.05,29.90,7,2,15,0.00
2013-6-15,78.5,69.2,57.5,65.5,62.2,54.6,91,79,55,30.09,29.92,11,1,16,0.02
2013-6-16,82.5,72.9,64.4,70.1,66.3,61.4,92,81,64,29.92,29.85,24,7,24,0.22
2013-6-17,89.5,74.5,65.9,72.4,65.8,59.2,95,78,38,29.92,29.84,13,3,13,0.00
2013-6-18,77.2,69.8,62.7,63.5,60.3,55.3,88,72,58,30.02,29.83,20,5,20,0.00
2013-6-19,76.6,61.8,53.0,57.0,51.1,46.0,86,70,42,30.14,30.02,10,3,13,0.00
2013-6-20,87.5,71.3,53.0,66.0,57.7,48.0,88,64,44,30.19,30.11,6,2,12,0.00
2013-6-21,87.3,77.0,62.5,64.0,60.6,57.0,87,60,36,30.17,30.01,14,3,22,0.00
2013-6-22,92.3,79.7,67.7,74.9,68.5,62.0,86,70,54,30.08,29.95,21,5,21,0.00
2013-6-23,91.5,77.8,69.3,71.9,67.8,65.3,92,73,48,30.08,29.95,26,5,26,0.30
2013-6-24,88.3,75.5,66.8,73.2,68.6,64.8,94,80,56,30.06,29.93,20,4,20,0.00
2013-6-25,91.1,78.9,68.7,76.0,70.0,63.7,93,76,56,29.97,29.79,13,7,26,0.01
2013-6-26,84.5,73.8,67.9,75.3,67.2,-99.9,95,83,68,29.88,29.71,12,-10,28,0.13
2013-6-27,88.1,76.8,68.7,74.0,70.4,65.0,95,81,59,29.74,29.62,13,2,20,0.13
2013-6-28,84.5,73.2,65.6,70.0,65.3,59.0,94,78,51,29.62,29.51,18,4,29,0.02
2013-6-29,77.0,67.0,60.2,66.0,62.9,58.0,95,87,65,29.67,29.52,7,1,42,0.95
2013-6-30,74.0,68.3,62.1,65.9,62.2,59.0,94,81,66,29.84,28.99,20,5,20,0.24
2013-7-1,67.9,64.0,60.7,62.7,58.6,54.0,91,83,77,29.96,29.83,20,5,20,0.22
2013-7-2,73.1,65.7,61.0,68.0,62.5,56.0,94,89,80,29.98,29.92,12,5,18,0.33
2013-7-3,82.0,73.4,64.2,70.5,66.2,62.5,97,79,58,30.04,29.96,16,3,20,0.03
2013-7-4,82.1,72.0,64.8,70.0,66.6,63.0,95,84,62,30.09,30.01,10,2,10,0.00
2013-7-5,83.4,74.8,67.4,72.0,68.9,66.0,95,82,64,30.05,29.98,8,2,15,0.07
2013-7-6,79.9,73.5,67.7,72.9,69.3,65.9,95,87,75,30.05,29.92,9,2,11,0.06
2013-7-7,82.3,70.6,65.4,71.0,67.1,59.8,95,89,63,30.02,29.94,17,3,17,0.16
2013-7-8,84.8,75.7,66.2,76.3,71.3,64.4,95,87,70,30.03,29.91,20,4,20,0.67
2013-7-9,88.5,79.0,73.7,79.7,74.6,71.0,94,87,70,29.94,29.84,19,4,19,0.30
2013-7-10,87.8,78.5,66.1,79.6,72.2,59.0,91,82,65,29.89,29.68,34,7,34,0.01
2013-7-11,79.3,71.8,61.0,62.0,59.4,56.6,91,66,49,30.00,29.88,16,4,16,0.00
2013-7-12,77.7,68.1,58.0,65.0,60.2,56.0,93,77,59,30.09,29.97,11,3,15,0.00
2013-7-13,82.5,74.1,60.0,70.6,66.1,57.7,93,77,63,30.12,30.04,15,4,15,0.00
2013-7-14,87.5,76.8,65.7,76.0,70.2,63.6,94,81,63,30.16,30.11,14,3,14,0.00
2013-7-15,91.5,83.7,71.2,76.0,73.6,69.0,94,73,57,30.23,30.15,12,3,12,0.00
2013-7-16,96.0,85.3,71.5,78.0,74.2,69.8,94,72,51,30.25,30.17,8,1,14,0.00
2013-7-17,96.7,83.1,70.6,78.0,73.5,68.9,94,75,51,30.24,30.10,9,2,16,0.00
2013-7-18,96.8,83.3,71.5,78.8,74.3,69.0,94,76,54,30.11,29.92,15,3,15,0.00
2013-7-19,93.9,84.0,73.4,78.0,74.1,71.0,91,73,56,29.93,29.73,24,8,29,0.00
2013-7-20,88.3,79.3,71.0,77.0,72.5,68.0,95,80,55,29.83,29.68,16,5,31,1.38
2013-7-21,85.2,77.2,65.0,72.3,68.7,63.0,94,76,57,29.92,29.82,9,2,13,0.00
2013-7-22,78.1,71.6,66.6,71.1,67.3,64.0,94,87,77,29.86,29.70,13,2,13,0.55
2013-7-23,87.2,74.6,64.0,72.7,66.4,56.8,95,77,56,29.79,29.64,22,5,26,0.01
2013-7-24,71.1,60.9,52.8,57.3,52.7,48.9,87,75,56,29.98,29.79,20,4,20,0.00
2013-7-25,77.1,65.0,52.7,60.0,55.5,51.0,94,74,48,30.06,29.98,9,1,12,0.00
2013-7-26,79.2,69.5,54.7,63.5,59.5,52.6,93,72,54,30.05,29.86,14,2,15,0.00
2013-7-27,79.8,67.8,55.5,67.1,61.4,51.0,93,81,51,29.89,29.70,29,4,30,0.07
2013-7-28,69.2,59.9,50.7,55.5,51.5,47.9,91,75,58,29.97,29.83,23,5,23,0.00
2013-7-29,74.7,62.9,50.5,60.3,54.7,47.0,91,76,58,30.13,29.97,17,3,20,0.00
2013-7-30,79.5,63.9,51.2,65.0,57.3,49.0,95,81,55,30.18,30.06,11,1,11,0.00
2013-7-31,75.4,69.2,64.7,67.9,65.1,61.7,95,87,72,30.06,29.86,10,2,17,0.14
2013-8-1,82.1,69.8,59.4,68.2,63.9,55.0,95,83,54,29.91,29.84,31,3,31,0.69
2013-8-2,77.1,63.2,52.7,69.0,60.2,50.0,95,90,73,29.97,29.80,15,4,29,1.61
2013-8-3,82.5,71.2,61.1,68.0,62.1,56.0,96,75,50,29.98,29.88,11,2,11,0.11
2013-8-4,77.1,65.6,53.6,61.3,56.1,51.6,94,73,48,30.11,29.98,10,2,14,0.01
2013-8-5,77.7,65.0,51.8,64.1,57.6,49.8,94,79,51,30.06,29.91,11,1,11,0.00
2013-8-6,79.1,70.6,63.1,70.0,64.6,59.0,92,82,70,29.92,29.83,14,3,18,0.01
2013-8-7,84.4,75.0,67.4,75.0,70.4,65.0,95,86,71,29.85,29.77,12,2,22,0.00
2013-8-8,73.7,70.5,67.7,69.1,67.3,65.4,94,90,84,29.92,29.82,15,3,15,0.00
2013-8-9,83.3,73.3,65.4,67.0,63.8,56.0,91,74,49,29.96,29.87,7,2,12,0.00
2013-8-10,80.9,69.8,63.2,71.0,65.1,61.0,95,85,67,30.05,29.95,11,2,14,0.02
2013-8-11,84.3,70.4,59.0,67.0,62.4,57.0,95,78,53,30.06,29.97,8,1,13,0.01
2013-8-12,86.5,75.1,59.8,71.8,67.1,57.8,94,77,58,30.01,29.77,15,3,16,0.00
2013-8-13,72.4,65.5,54.9,66.1,56.3,49.7,93,74,47,30.01,29.77,19,4,19,0.00
2013-8-14,70.8,58.4,46.6,58.2,50.1,44.0,93,76,50,30.14,30.01,14,2,14,0.00
2013-8-15,75.9,60.0,45.6,58.3,51.4,43.3,94,76,48,30.15,30.05,11,0,11,0.01
2013-8-16,76.0,64.6,54.6,62.0,56.0,52.0,92,76,50,30.13,30.08,6,1,11,0.00
2013-8-17,78.1,68.9,52.4,62.4,58.0,50.9,94,70,50,30.19,30.11,15,3,15,0.00
2013-8-18,81.3,69.3,56.4,66.8,60.2,54.1,94,75,48,30.15,30.04,9,1,9,0.00
2013-8-19,86.5,69.0,54.5,65.2,59.6,52.5,94,75,44,30.08,29.99,13,1,13,0.00
2013-8-20,87.7,72.5,57.8,69.0,63.6,56.0,94,76,46,30.11,30.02,8,1,12,0.00
2013-8-21,87.5,73.1,62.2,72.2,66.3,59.5,92,80,59,30.10,29.96,10,2,17,0.00
2013-8-22,83.0,72.3,66.2,73.1,67.9,63.7,93,86,70,30.01,29.93,20,3,25,0.00
2013-8-23,81.8,72.6,61.4,66.6,62.7,56.5,95,74,44,30.12,29.98,18,3,18,0.00
2013-8-24,81.9,69.0,54.9,62.0,56.9,52.0,92,69,41,30.25,30.12,12,2,20,0.01
2013-8-25,89.0,77.2,55.5,68.0,63.6,52.6,92,65,47,30.25,30.12,13,4,17,0.00
2013-8-26,88.4,75.6,63.4,73.3,66.6,58.0,86,74,59,30.16,29.95,14,5,18,0.00
2013-8-27,90.2,77.9,68.3,78.0,71.6,65.0,91,81,66,29.96,29.82,16,4,16,0.00
2013-8-28,89.7,80.4,73.4,77.0,72.0,68.7,88,76,63,29.92,29.77,16,5,24,0.00
2013-8-29,86.8,75.5,66.2,72.7,68.7,64.4,95,81,56,30.00,29.92,12,2,13,0.00
2013-8-30,90.7,76.3,61.8,73.5,67.9,60.0,96,77,53,29.93,29.70,18,3,20,0.00
2013-8-31,88.5,77.2,70.0,74.8,70.9,66.3,94,81,63,29.78,29.66,18,3,19,0.00
2013-9-1,80.6,72.8,66.0,73.5,68.7,64.2,95,87,77,29.74,29.68,14,3,15,0.89
2013-9-2,83.7,72.1,59.4,71.0,63.9,55.1,96,78,48,29.86,29.69,15,3,19,0.00
2013-9-3,77.6,66.0,55.4,60.5,55.0,50.1,88,69,47,29.99,29.86,13,2,13,0.00
2013-9-4,83.4,65.3,49.6,63.0,56.3,47.7,95,75,45,30.08,29.98,16,3,22,0.00
2013-9-5,78.7,64.5,55.8,60.1,51.9,41.0,93,69,27,30.18,30.04,13,2,14,0.00
2013-9-6,77.9,62.2,47.0,56.0,49.8,44.9,93,68,36,30.23,30.04,8,1,13,0.00
2013-9-7,87.7,71.5,55.0,68.7,59.5,47.8,83,67,48,30.04,29.85,20,3,23,0.00
2013-9-8,75.4,68.6,61.4,67.2,63.3,57.1,93,84,71,29.98,29.87,14,3,14,0.00
2013-9-9,91.3,72.7,59.0,72.3,63.4,53.0,88,74,50,29.98,29.84,19,4,19,0.00
2013-9-10,99.3,85.3,75.5,74.4,70.3,65.7,86,64,37,29.99,29.87,21,6,21,0.00
2013-9-11,97.1,81.6,72.1,74.0,68.6,66.0,85,67,38,30.01,29.87,17,4,25,0.00
2013-9-12,84.2,71.6,59.3,69.9,64.3,54.6,95,80,41,29.91,29.75,15,3,16,0.17
2013-9-13,62.9,55.4,47.4,54.6,46.1,41.0,88,72,52,30.09,29.90,21,4,21,0.00
2013-9-14,70.6,53.1,37.5,47.0,40.6,35.0,93,67,32,30.17,30.06,8,0,9,0.00
2013-9-15,73.2,60.4,44.4,55.0,48.2,40.0,89,67,42,30.09,29.95,17,3,17,0.08
2013-9-16,64.9,58.6,50.6,55.0,50.2,45.4,94,74,57,30.29,30.07,12,3,13,0.00
2013-9-17,70.5,53.5,43.2,52.0,45.3,41.0,93,76,41,30.33,30.15,10,2,14,0.01
2013-9-18,82.2,63.6,50.6,59.0,52.4,47.0,91,70,39,30.15,29.97,10,1,11,0.00
2013-9-19,81.6,69.3,62.3,69.0,64.0,54.0,95,84,65,29.99,29.86,13,2,21,0.14
2013-9-20,84.7,72.2,66.6,72.0,68.6,65.0,95,89,63,29.87,29.70,13,4,25,0.55
2013-9-21,70.8,60.1,50.2,64.6,51.8,46.0,95,76,46,29.83,29.66,16,3,22,0.30
2013-9-22,65.5,54.0,43.6,47.4,44.6,41.5,93,73,49,30.01,29.83,16,2,16,0.01
2013-9-23,63.7,51.9,40.6,49.9,44.1,38.0,93,76,55,30.12,30.01,16,2,16,0.00
2013-9-24,68.4,50.9,41.5,49.0,43.9,38.8,93,79,48,30.09,29.92,13,2,16,0.00
2013-9-25,74.0,59.9,47.4,56.9,51.2,44.9,94,75,50,29.94,29.85,16,3,16,0.00
2013-9-26,78.2,61.0,45.5,59.4,49.2,41.0,95,69,37,30.07,29.91,14,3,15,0.01
2013-9-27,77.8,60.6,45.2,59.2,50.1,42.7,94,71,40,30.16,30.07,16,3,17,0.01
2013-9-28,81.8,60.3,49.0,57.5,51.5,47.0,94,76,36,30.18,30.00,11,2,17,0.00
2013-9-29,63.2,60.3,56.8,62.0,57.1,51.0,95,89,71,30.01,29.94,7,2,12,0.55
2013-9-30,72.8,60.3,54.4,62.5,56.9,53.0,96,89,60,30.02,29.92,14,2,17,0.01
2013-10-1,75.2,66.7,52.0,64.6,60.3,50.0,96,81,63,30.03,29.93,20,5,20,0.02
2013-10-2,84.1,70.2,61.2,69.0,63.5,58.6,94,80,56,30.07,29.98,13,4,13,0.00
2013-10-3,81.0,70.4,61.7,70.9,64.5,58.8,95,82,62,30.02,29.91,19,3,20,0.03
2013-10-4,84.1,69.9,65.3,73.0,65.5,62.0,94,86,65,30.01,29.94,13,3,16,0.18
2013-10-5,78.3,69.5,63.5,71.0,66.7,62.0,96,91,76,30.01,29.83,5,2,13,1.42
2013-10-6,69.5,61.6,52.1,67.0,59.3,46.3,95,92,81,29.85,29.65,26,5,26,0.46
2013-10-7,61.6,51.4,43.4,49.1,44.7,40.3,90,79,60,30.15,29.75,29,6,34,0.00
2013-10-8,68.5,53.5,39.4,52.4,44.4,37.5,94,74,45,30.29,30.15,10,1,11,0.01
2013-10-9,70.9,56.7,44.0,50.8,45.5,41.4,92,69,36,30.28,30.17,15,2,17,0.00
2013-10-10,72.4,56.8,42.3,52.8,45.5,40.0,94,70,37,30.20,30.09,10,1,11,0.01
2013-10-11,75.5,58.8,45.7,55.4,49.0,43.0,94,74,40,30.13,30.03,8,1,8,0.00
2013-10-12,78.8,62.9,47.7,60.7,54.3,45.8,95,76,50,30.08,30.00,13,1,13,0.01
2013-10-13,70.8,61.1,49.7,56.9,48.1,41.3,89,65,35,30.33,30.08,14,2,14,0.00
2013-10-14,65.5,53.2,42.8,50.7,44.5,39.5,90,74,49,30.38,30.23,14,3,17,0.00
2013-10-15,65.9,54.1,44.1,61.0,50.3,40.8,93,87,79,30.23,29.88,13,2,18,0.09
2013-10-16,63.5,57.5,45.1,61.0,50.3,41.0,93,78,56,29.94,29.83,20,6,24,0.00
2013-10-17,59.0,47.5,39.9,47.7,43.7,37.0,92,87,66,29.93,29.82,19,5,21,0.10
2013-10-18,65.5,50.0,37.4,50.1,41.9,35.0,93,76,48,29.96,29.88,26,5,28,0.01
2013-10-19,51.9,43.9,40.2,43.0,38.7,35.0,92,82,60,29.96,29.82,21,4,21,0.27
2013-10-20,61.6,50.7,40.7,44.9,39.8,34.8,81,67,47,29.96,29.89,23,7,25,0.00
2013-10-21,59.7,51.0,39.5,47.6,42.9,33.2,88,74,62,29.92,29.84,26,7,27,0.02
2013-10-22,51.0,39.4,30.8,33.4,29.5,24.0,88,70,40,30.01,29.91,17,5,20,0.08
2013-10-23,45.3,37.5,32.6,37.7,32.7,29.0,92,83,62,30.01,29.83,21,2,21,0.02
2013-10-24,44.5,38.0,33.2,35.3,31.2,28.6,86,77,61,30.25,30.00,19,5,20,0.00
2013-10-25,48.5,37.5,28.5,37.2,28.9,25.1,89,73,46,30.40,30.20,19,5,25,0.00
2013-10-26,51.6,42.7,35.0,38.6,31.5,26.6,78,64,57,30.20,29.86,34,8,34,0.00
2013-10-27,55.1,42.8,31.2,38.8,32.5,28.1,90,69,44,30.10,30.03,18,3,18,0.00
2013-10-28,59.0,43.3,28.2,41.0,33.9,24.0,89,71,48,30.36,30.08,10,1,10,0.00
2013-10-29,55.7,44.0,32.9,42.0,36.7,29.5,88,76,56,30.42,30.23,13,2,14,0.00
2013-10-30,63.4,52.2,37.5,58.2,46.9,34.8,91,82,73,30.23,29.93,12,2,12,0.00
2013-10-31,63.7,60.9,58.6,60.9,58.4,56.4,95,91,85,29.93,29.21,32,8,32,1.34
2013-11-1,58.5,49.3,46.0,56.5,44.5,41.0,93,83,76,29.70,29.24,34,10,38,0.02
2013-11-2,49.2,45.7,42.8,45.3,42.0,39.5,92,87,76,30.08,29.69,19,4,19,0.05
2013-11-3,48.1,41.8,36.8,39.8,36.5,32.7,90,82,68,30.41,30.08,13,3,13,0.01
2013-11-4,51.8,42.6,33.8,40.6,35.4,30.4,89,76,56,30.44,30.30,18,5,18,0.00
2013-11-5,57.4,48.6,39.6,50.0,43.4,36.0,91,83,71,30.38,30.17,16,2,16,0.00
2013-11-6,57.4,52.6,42.7,53.6,47.0,39.4,90,81,70,30.17,29.87,34,7,34,0.18
2013-11-7,47.9,42.0,35.6,39.4,33.4,29.0,88,72,51,30.22,30.03,29,6,31,0.00
2013-11-8,47.0,38.9,30.9,34.5,30.6,27.9,89,73,53,30.35,30.19,14,3,14,0.00
2013-11-9,59.6,48.6,37.8,43.8,37.3,30.8,81,65,53,30.20,29.90,34,10,36,0.00
2013-11-10,49.0,41.2,31.7,38.2,32.0,26.0,82,70,57,30.32,30.00,24,6,25,0.00
2013-11-11,48.4,38.6,27.3,38.3,32.3,23.9,91,79,62,30.35,30.06,23,7,23,0.13
2013-11-12,34.4,27.5,18.6,25.2,20.8,14.7,87,76,64,30.62,30.35,17,4,18,0.03
2013-11-13,36.7,28.5,20.6,23.5,20.3,16.0,83,72,55,30.60,30.30,22,6,22,0.00
2013-11-14,51.0,38.3,28.5,28.3,24.4,20.9,74,58,36,30.30,30.07,29,9,32,0.00
2013-11-15,50.1,42.0,34.7,32.7,28.8,24.0,79,60,46,30.10,30.04,23,4,23,0.00
2013-11-16,58.1,48.2,32.7,53.8,44.0,27.3,91,86,78,30.10,29.81,17,5,22,0.00
2013-11-17,65.5,60.4,56.9,59.8,56.5,53.7,93,87,81,29.82,29.32,48,10,55,0.68
2013-11-18,57.5,39.7,36.0,55.2,30.4,26.8,92,69,65,30.19,29.38,33,9,36,0.76
2013-11-19,40.9,35.3,30.3,27.6,25.9,24.0,79,68,56,30.40,30.19,15,3,18,0.00
2013-11-20,44.0,34.7,26.0,34.2,28.1,22.0,85,77,65,30.42,30.23,18,4,18,0.00
2013-11-21,46.6,43.4,41.0,45.0,39.7,34.1,94,87,76,30.31,30.18,13,2,14,0.38
2013-11-22,47.5,41.6,28.7,46.1,38.9,25.0,95,90,78,30.41,30.15,25,4,25,0.06
2013-11-23,32.7,26.1,16.9,26.8,19.1,8.0,90,75,58,30.60,30.34,29,7,29,0.01
2013-11-24,26.5,19.7,15.2,17.3,12.4,8.0,81,73,62,30.69,30.52,17,4,19,0.00
2013-11-25,31.9,25.6,16.7,21.9,17.0,11.7,82,70,57,30.52,30.18,26,7,26,0.00
2013-11-26,34.6,31.0,28.2,27.8,25.0,22.2,86,78,70,30.19,29.96,19,4,19,0.00
2013-11-27,31.0,25.9,21.1,23.1,16.4,11.0,87,68,48,30.26,29.96,26,7,26,0.00
2013-11-28,29.9,25.4,21.1,19.7,17.3,14.0,86,72,56,30.45,30.26,21,3,21,0.00
2013-11-29,35.6,25.3,16.2,25.0,18.6,11.4,86,76,55,30.67,30.46,9,2,10,0.00
2013-11-30,49.2,33.3,24.3,31.5,24.8,18.4,83,72,50,30.56,30.15,20,3,20,0.00
2013-12-1,48.1,38.2,28.8,35.4,30.1,23.0,81,73,60,30.15,30.00,15,3,15,0.00
2013-12-2,38.7,33.2,27.1,32.0,28.8,23.7,90,84,73,30.00,29.86,12,3,12,0.01
2013-12-3,48.4,40.2,32.5,44.6,37.5,29.9,93,90,86,29.89,29.80,13,4,13,0.04
2013-12-4,58.2,51.0,43.6,54.4,48.3,41.4,93,90,87,29.87,29.65,23,4,23,0.00
2013-12-5,59.0,40.8,27.9,54.8,35.3,24.2,89,81,70,30.19,29.66,27,9,28,0.00
2013-12-6,29.8,28.2,24.3,24.9,21.4,17.8,88,75,71,30.43,30.15,13,4,13,0.00
2013-12-7,27.8,22.4,15.9,17.8,13.8,9.9,78,69,56,30.65,30.43,15,3,15,0.00
2013-12-8,27.8,22.2,16.1,25.8,16.7,10.4,92,79,68,30.61,30.00,23,7,23,0.00
2013-12-9,29.5,25.2,19.0,27.5,20.5,10.9,92,82,70,30.22,29.96,30,11,30,0.00
2013-12-10,27.1,18.6,9.8,13.8,9.2,3.7,77,67,54,30.31,30.07,35,11,40,0.00
2013-12-11,24.3,16.7,5.5,19.5,11.1,-0.1,86,78,70,30.53,30.31,17,5,19,0.00
2013-12-12,19.8,9.6,-0.9,8.2,1.9,-6.3,82,71,58,30.55,30.31,24,7,24,0.00
2013-12-13,28.2,21.8,12.5,22.5,14.0,5.0,87,72,62,30.31,30.20,16,4,17,0.00
2013-12-14,29.3,25.4,20.9,28.0,23.1,18.0,93,91,87,30.23,29.81,17,8,19,0.00
2013-12-15,24.1,17.4,9.9,21.4,13.5,5.5,90,84,80,30.14,29.88,31,10,31,0.00
2013-12-16,19.1,15.0,10.0,16.4,10.9,5.0,89,83,79,30.23,30.03,15,3,16,0.03
2013-12-17,26.2,21.7,18.3,22.4,18.8,15.6,90,88,84,30.10,29.99,22,7,24,0.00
2013-12-18,32.5,21.5,16.7,21.6,15.6,11.2,86,78,63,30.25,29.97,29,7,31,0.00
2013-12-19,42.0,36.5,30.9,34.3,30.0,21.0,87,77,63,30.03,29.90,18,4,19,0.04
2013-12-20,56.2,44.8,37.0,54.4,42.7,33.2,95,92,84,29.90,29.73,24,5,25,0.17
2013-12-21,55.3,39.5,33.7,53.3,37.7,31.8,94,93,92,29.84,29.53,24,6,24,1.50
2013-12-22,43.0,37.0,34.1,41.7,34.7,31.0,95,91,87,30.02,29.44,32,10,32,0.19
2013-12-23,34.1,27.7,16.8,31.3,22.8,9.0,91,82,70,30.39,30.02,23,10,25,0.00
2013-12-24,19.7,13.4,6.7,12.4,7.5,1.3,80,77,72,30.60,30.39,25,8,25,0.00
2013-12-25,26.2,20.1,15.0,22.6,15.2,9.0,86,81,74,30.59,30.17,22,5,25,0.00
2013-12-26,31.8,27.2,23.7,25.9,21.5,16.6,90,79,59,30.34,30.12,27,8,28,0.00
2013-12-27,42.8,35.5,30.5,33.7,28.7,24.9,84,76,69,30.37,30.18,19,6,20,0.00
2013-12-28,49.5,40.1,35.5,38.7,33.0,30.0,82,76,66,30.18,29.95,21,7,23,0.00
2013-12-29,45.3,35.8,26.0,35.4,29.6,19.9,86,78,68,30.05,29.74,24,6,24,0.00
2013-12-30,26.1,22.3,18.8,20.1,14.8,12.0,80,72,61,30.27,30.05,18,5,18,0.00
2013-12-31,19.0,16.8,13.2,14.7,11.2,7.6,85,78,68,30.39,30.16,30,8,30,0.00
2014-1-1,20.2,17.3,14.3,16.0,13.6,10.7,87,85,83,30.37,30.16,22,7,22,0.00
2014-1-2,17.4,12.9,4.4,14.4,9.2,-1.2,88,85,77,30.34,30.04,27,10,28,0.00